This is the latest recevied weather packets stored in our database for station/object K5WNG. If no packets are shown the sender has not sent any weather packets the latest 10 day(s).
| Time | Temp. | Humidity | Pressure | Rain* | Wind** | Luminosity | Snow |
|---|---|---|---|---|---|---|---|
| 1777292428 | 23.33° C | 92% | 1008.6 hPa | 0 mm | - | 21 W/m² | - |
| 1777292131 | 23.33° C | 92% | 1008.5 hPa | 0 mm | - | 19 W/m² | - |
| 1777291828 | 23.33° C | 92% | 1008.4 hPa | 0 mm | - | 12 W/m² | - |
| 1777291528 | 23.33° C | 92% | 1008.4 hPa | 0 mm | - | 8 W/m² | - |
| 1777291231 | 23.33° C | 92% | 1008.5 hPa | 0 mm | - | 5 W/m² | - |
| 1777290932 | 23.33° C | 92% | 1008.5 hPa | 0 mm | - | 3 W/m² | - |
| 1777290629 | 23.33° C | 92% | 1008.4 hPa | 0 mm | - | 1 W/m² | - |
| 1777290331 | 23.33° C | 92% | 1008.3 hPa | 0 mm | - | 1 W/m² | - |
| 1777290028 | 23.33° C | 92% | 1008.4 hPa | 0 mm | - | 0 W/m² | - |
| 1777289729 | 23.33° C | 92% | 1008.3 hPa | 0 mm | - | 0 W/m² | - |
| 1777289432 | 23.33° C | 92% | 1008.2 hPa | 0 mm | - | 0 W/m² | - |
| 1777289129 | 23.33° C | 92% | 1008.2 hPa | 0 mm | - | 0 W/m² | - |
| 1777288829 | 23.33° C | 92% | 1008.2 hPa | 0 mm | - | 0 W/m² | - |
| 1777288529 | 23.33° C | 92% | 1008.1 hPa | 0 mm | - | 0 W/m² | - |
| 1777288232 | 22.78° C | 92% | 1008 hPa | 0 mm | - | 0 W/m² | - |
| 1777287929 | 22.78° C | 92% | 1007.9 hPa | 0 mm | - | 0 W/m² | - |
| 1777287629 | 22.78° C | 91% | 1007.7 hPa | 0 mm | - | 0 W/m² | - |
| 1777287332 | 22.78° C | 91% | 1007.7 hPa | 0 mm | - | 0 W/m² | - |
| 1777287029 | 22.78° C | 91% | 1007.8 hPa | 0 mm | - | 0 W/m² | - |
| 1777286732 | 22.78° C | 91% | 1007.8 hPa | 0 mm | - | 0 W/m² | - |
| 1777286430 | 23.33° C | 91% | 1007.7 hPa | 0 mm | - | 0 W/m² | - |
| 1777286130 | 23.33° C | 91% | 1007.6 hPa | 0 mm | - | 0 W/m² | - |
| 1777285833 | 23.33° C | 90% | 1007.6 hPa | 0 mm | - | 0 W/m² | - |
| 1777285530 | 23.33° C | 90% | 1007.6 hPa | 0 mm | - | 0 W/m² | - |
| 1777285235 | 23.33° C | 90% | 1007.7 hPa | 0 mm | - | 0 W/m² | - |
* Rain latest hour (hover to see other rain measurements)
** Current wind speed in m/s (hover to see current wind gust speed)